Regional Weather Roundup
Issued by NWS San Angelo, TX

Home | Current Version | Previous Version | Text Only | Print | Product List | Glossary On
Versions: 1 2 3 4 5 6 7 8 9 10 11 12 13 14 15 16 17 18 19 20 21 22 23 24 25 26 27 28 29 30 31 32 33 34 35 36 37 38 39 40 41 42 43 44 45 46 47 48 49 50
000
ASUS44 KSJT 191502
RWRSJT
WEST CENTRAL TEXAS REGIONAL WEATHER ROUNDUP
NATIONAL WEATHER SERVICE SAN ANGELO TX
1000 AM CDT SAT APR 19 2014

NOTE: "FAIR" INDICATES FEW OR NO CLOUDS BELOW 12,000 FEET WITH NO
SIGNIFICANT WEATHER AND/OR OBSTRUCTIONS TO VISIBILITY.

TXZ049-054-064>066-071>073-076>078-098-099-113-114-127-128-139-140-
154-155-168>170-191600
...LOCATIONS ACROSS WEST CENTRAL TEXAS...

CITY           SKY/WX    TMP DP  RH WIND       PRES   REMARKS
SAN ANGELO     SUNNY     68  54  60 S14       30.13F
ABILENE        MOSUNNY   68  52  56 S18G25    30.14F
DYESS AFB      NOT AVBL
JUNCTION       PTSUNNY   66  53  63 S12       30.16F
SWEETWATER     NOT AVBL
BROWNWOOD      SUNNY     66  55  68 S10       30.18R
COLEMAN        NOT AVBL
SONORA         NOT AVBL
OZONA          NOT AVBL
BRADY          NOT AVBL
$$

TEXAS PANHANDLE/OKLAHOMA PANHANDLE

CITY           SKY/WX    TMP DP  RH WIND       PRES   REMARKS
AMARILLO       CLOUDY    58  44  60 S16       30.10F
BORGER         CLOUDY    61  44  53 S14G24    30.07S
CANADIAN       NOT AVBL
DALHART        CLOUDY    61  45  55 SW12      30.06F
DUMAS          NOT AVBL
GUYMON         NOT AVBL
HEREFORD       NOT AVBL
PAMPA          NOT AVBL
PERRYTON       NOT AVBL
$$

SOUTHERN PANHANDLE/SOUTH PLAINS/ROLLING PLAINS

CITY           SKY/WX    TMP DP  RH WIND       PRES   REMARKS
LUBBOCK        PTSUNNY   63  50  62 S21G26    30.10F
SNYDER         NOT AVBL
CHILDRESS      CLOUDY    65  51  60 S18G25    30.13F
SEMINOLE       NOT AVBL
$$

PERMIAN BASIN

CITY           SKY/WX    TMP DP  RH WIND       PRES   REMARKS
MIDLAND        CLOUDY    65  55  70 S25G33    30.09F
ODESSA         CLOUDY    64  55  72 S21G32    30.10S
WINK           CLOUDY    64  53  67 SE15      30.04S
$$

FAR WEST/SOUTHWEST MOUNTAINS/TRANS PECOS

CITY           SKY/WX    TMP DP  RH WIND       PRES   REMARKS
ALPINE         NOT AVBL
DRYDEN           N/A     72  58  61 E18       30.07R
EL PASO        CLOUDY    66  50  56 NE6       30.05F
FORT STOCKTON  CLOUDY    63  54  72 SE14G22   30.08S
GUADALUPE PASS NOT AVBL
MARFA          MOSUNNY   61  48  63 E6        30.15S
PECOS          CLOUDY    65  50  58 SE5       30.04R
$$

DALLAS/FORT WORTH METROPLEX

CITY           SKY/WX    TMP DP  RH WIND       PRES   REMARKS
DFW AIRPORT    MOSUNNY   69  55  60 S10       30.19R
FTW MEACHAM    SUNNY     68  54  60 S9        30.18S
DAL-EXECUTIVE  SUNNY     69  55  60 VRB5G17   30.20R
GRAND PRAIRIE  SUNNY     66  54  63 S8        30.23R
ADDISON        MOSUNNY   68  54  60 S12       30.20
MESQUITE       NOT AVBL
LANCASTER      SUNNY     65  53  65 S8        30.22R
$$

NORTH CENTRAL TEXAS

CITY           SKY/WX    TMP DP  RH WIND       PRES   REMARKS
SHRMAN/DENISON NOT AVBL
GAINESVILLE    NOT AVBL
BRIDGEPORT     SUNNY     65  51  59 SE6       30.20S
DENTON         SUNNY     67  54  63 S13       30.20R
WAXAHACHIE     MOSUNNY   66  55  66 S12       30.22R
GRANBURY       SUNNY     68  53  59 SE7       30.20R
$$

WESTERN NORTH TEXAS

CITY           SKY/WX    TMP DP  RH WIND       PRES   REMARKS
WICHITA FALLS  SUNNY     69  49  48 S15       30.16R
VERNON         NOT AVBL
BRECKENRIDGE   NOT AVBL
COMANCHE       MOSUNNY   67  54  61 SE9       30.17S
$$

CENTRAL AND SOUTH CENTRAL TEXAS

CITY           SKY/WX    TMP DP  RH WIND       PRES   REMARKS
AUSTIN/BERGSTM MOSUNNY   66  59  78 CALM      30.18S
WACO           SUNNY     65  55  70 VRB3      30.19R
HILLSBORO      NOT AVBL
TEMPLE         SUNNY     66  54  63 SE5       30.20F
KILLEEN-GRAY   MOSUNNY   70  55  60 SE9       30.17S
FORT HOOD      NOT AVBL
GEORGETOWN     SUNNY     64  55  72 VRB3      30.18S
LAGO VISTA     FAIR      67  56  67 S7        30.19S
SAN MARCOS     SUNNY     66  55  68 CALM      30.19F
NEW BRAUNFELS  SUNNY     68  56  65 S6        30.17S
RANDOLPH AFB   NOT AVBL
SAN ANTONIO    PTSUNNY   68  57  68 VRB3      30.18R
STINSON        PTSUNNY   70  58  65 VRB3      30.16R
PLEASANTON     NOT AVBL
LA GRANGE      MOSUNNY   63  62  98 CALM      30.17S FOG
GIDDINGS       NOT AVBL
$$

EAST TEXAS

CITY           SKY/WX    TMP DP  RH WIND       PRES   REMARKS
PARIS          SUNNY     64  52  63 SE7       30.23S
CLARKSVILLE    NOT AVBL
TYLER          SUNNY     69  53  56 SE8       30.21R
LONGVIEW       SUNNY     68  56  65 E3        30.21R
PALESTINE      MOSUNNY   69  55  60 E8        30.22S HAZE
NACOGDOCHES    SUNNY     66  57  72 S6        30.22R
$$

TEXAS HILL COUNTRY AND EDWARDS PLATEAU

CITY           SKY/WX    TMP DP  RH WIND       PRES   REMARKS
LLANO          NOT AVBL
HORSESHOE BAY  FAIR      70  54  56 S8        30.17R
KERRVILLE      NOT AVBL
FREDERICKSBRG  NOT AVBL
ROCKSPRINGS    NOT AVBL
HONDO          CLOUDY    69  55  60 E8        30.18F
UVALDE         NOT AVBL
DEL RIO        CLOUDY    67  51  56 SE8       30.13R
$$

SOUTHEAST TEXAS

CITY           SKY/WX    TMP DP  RH WIND       PRES   REMARKS
COLLEGE STN    SUNNY     67  58  72 CALM      30.20R
CALDWELL       NOT AVBL
CROCKETT       NOT AVBL
BRENHAM        NOT AVBL
HUNTSVILLE     MOSUNNY   67  55  65 SE3       30.20R
CONROE         SUNNY     67  58  72 E5        30.21R
HOUSTON BUSH   MOSUNNY   70  58  65 SE6       30.20R
HOUSTON HOBBY  MOSUNNY   70  58  65 E8        30.19R
PERLAND        SUNNY     70  59  68 VRB5      30.20R
WHARTON        NOT AVBL
$$

THE UPPER TEXAS COAST

CITY           SKY/WX    TMP DP  RH WIND       PRES   REMARKS
ORANGE         MOSUNNY   68  58  69 SE8       30.22R
PORT ARTHUR    MOSUNNY   70  60  70 E13       30.20R
GALVESTON      MOSUNNY   70  64  81 E9        30.19R
ANGLETON       SUNNY     70  60  70 E8        30.18R
BAY CITY       NOT AVBL
$$

TEXAS COASTAL BEND, RIO GRANDE PLAINS DEEP SOUTH TEXAS

CITY           SKY/WX    TMP DP  RH WIND       PRES   REMARKS
VICTORIA       SUNNY     68  62  81 NE8       30.17F
BEEVILLE       FAIR      69  62  78 E6        30.16R
ROCKPORT       MOSUNNY   70  63  78 E8        30.16R
PORT ARANSAS   NOT AVBL
PORT LAVACA    NOT AVBL
CORPUS CHRISTI PTSUNNY   71  60  68 SE7       30.15R
KINGSVILLE NAS PTSUNNY   71  63  75 E8        30.14R
COTULLA        CLOUDY    66  56  70 S6        30.15R
LAREDO         CLOUDY    69  58  68 SE7       30.15R
BROWNSVILLE    PTSUNNY   74  65  73 SE10      30.13R
PORT ISABEL    CLOUDY    73  65  75 E9        30.13R
HEBBRONVILLE   NOT AVBL
MCALLEN        CLOUDY    70  62  76 E8        30.14R
WESLACO        NOT AVBL
FALFURRIAS     PTSUNNY   66  58  76 E6        30.14S
EDINBURG       NOT AVBL
$$



USA.gov is the U.S. government's official web portal to all federal, state and local government web resources and services.